BEL4GU EBBR-LEMG

Flight info

Callsign BEL4GU
Flight time 2h 28m
Altitude 39000
Route CIV N872 LESDO DCT KOVIN DCT DUCRA UM728 RESMI UN857 DISAK DCT ARKIP DCT ARNAV DCT LMG DCT UVELI DCT OSMOB DCT ARVID T424 PPN N10 CJN L27 BLN
Aircraft A320/M-SDE3FGHIRWY/LB1

Departure

Time 2026-05-07 18:12
Airport Brussels Airport (EBBR)

Arrival

Time 2026-05-07 20:41
Airport Málaga-Costa del Sol Airport (LEMG)
Time Latitude Longitude Altitude Speed Heading
2026-05-07 17:41 50.90347 4.48826 118 ft 0 kts 335°
2026-05-07 18:03 50.90336 4.48834 117 ft 2 kts 335°
2026-05-07 18:03 50.90322 4.48845 117 ft 2 kts 335°
2026-05-07 18:03 50.90312 4.48852 118 ft 0 kts 340°
2026-05-07 18:04 50.90302 4.48857 119 ft 2 kts 355°
2026-05-07 18:04 50.90286 4.48859 120 ft 2 kts 355°
2026-05-07 18:04 50.90269 4.48858 123 ft 2 kts 26°
2026-05-07 18:04 50.90258 4.48848 121 ft 0 kts 50°
2026-05-07 18:07 50.90260 4.48851 121 ft 1 kts 51°
2026-05-07 18:07 50.90273 4.48882 124 ft 3 kts 59°
2026-05-07 18:07 50.90283 4.48909 121 ft 2 kts 60°
2026-05-07 18:07 50.90290 4.48930 123 ft 2 kts 63°
2026-05-07 18:08 50.90307 4.49002 124 ft 9 kts 70°
2026-05-07 18:08 50.90332 4.49086 122 ft 8 kts 61°
2026-05-07 18:08 50.90353 4.49157 124 ft 6 kts 69°
2026-05-07 18:08 50.90369 4.49213 122 ft 5 kts 64°
2026-05-07 18:09 50.90386 4.49270 121 ft 6 kts 65°
2026-05-07 18:09 50.90419 4.49387 123 ft 15 kts 66°
2026-05-07 18:09 50.90465 4.49548 124 ft 17 kts 66°
2026-05-07 18:09 50.90564 4.49637 124 ft 18 kts 14°
2026-05-07 18:10 50.90691 4.49686 122 ft 20 kts 14°
2026-05-07 18:10 50.90828 4.49744 124 ft 21 kts 12°
2026-05-07 18:10 50.90908 4.49779 122 ft 10 kts 16°
2026-05-07 18:10 50.90967 4.49844 120 ft 11 kts 42°
2026-05-07 18:11 50.91043 4.49915 120 ft 14 kts 19°
2026-05-07 18:11 50.91134 4.49907 116 ft 15 kts 300°
2026-05-07 18:11 50.91068 4.49652 117 ft 52 kts 245°
2026-05-07 18:11 50.90819 4.48778 118 ft 119 kts 245°
2026-05-07 18:12 50.90404 4.47327 130 ft 168 kts 247°
2026-05-07 18:12 50.89937 4.45614 750 ft 170 kts 249°
2026-05-07 18:12 50.89822 4.43791 1504 ft 170 kts 289°
2026-05-07 18:12 50.90297 4.42094 2256 ft 169 kts 288°
2026-05-07 18:13 50.90482 4.40265 2939 ft 168 kts 275°
2026-05-07 18:13 50.90585 4.38405 3538 ft 175 kts 275°
2026-05-07 18:13 50.90694 4.36364 3853 ft 197 kts 275°
2026-05-07 18:13 50.90814 4.34075 4126 ft 221 kts 274°
2026-05-07 18:14 50.90651 4.31537 4495 ft 246 kts 249°
2026-05-07 18:14 50.89635 4.29262 5023 ft 264 kts 221°
2026-05-07 18:14 50.88256 4.27304 5893 ft 268 kts 221°
2026-05-07 18:14 50.86877 4.25340 6701 ft 273 kts 221°
2026-05-07 18:15 50.85466 4.23320 6973 ft 273 kts 221°
2026-05-07 18:15 50.84135 4.21411 7535 ft 276 kts 222°
2026-05-07 18:15 50.82711 4.19367 8506 ft 277 kts 222°
2026-05-07 18:15 50.81279 4.17308 9412 ft 280 kts 222°
2026-05-07 18:16 50.79827 4.15221 10264 ft 284 kts 222°
2026-05-07 18:16 50.78321 4.13062 10689 ft 304 kts 223°
2026-05-07 18:16 50.76694 4.10730 11005 ft 325 kts 222°
2026-05-07 18:16 50.74999 4.08306 11653 ft 332 kts 222°
2026-05-07 18:17 50.73292 4.05870 12405 ft 336 kts 222°
2026-05-07 18:17 50.71551 4.03390 13171 ft 340 kts 222°
2026-05-07 18:17 50.69785 4.00877 13922 ft 343 kts 222°
2026-05-07 18:17 50.68003 3.98343 14588 ft 347 kts 222°
2026-05-07 18:18 50.66205 3.95786 15261 ft 350 kts 223°
2026-05-07 18:18 50.64394 3.93209 15929 ft 353 kts 223°
2026-05-07 18:18 50.62559 3.90603 16599 ft 356 kts 223°
2026-05-07 18:18 50.60734 3.88017 17243 ft 359 kts 223°
2026-05-07 18:19 50.59224 3.85882 17775 ft 362 kts 223°
2026-05-07 18:19 50.57230 3.83441 18396 ft 366 kts 213°
2026-05-07 18:19 50.54951 3.81602 18944 ft 371 kts 205°
2026-05-07 18:19 50.52573 3.79986 19516 ft 373 kts 205°
2026-05-07 18:20 50.50188 3.78362 20087 ft 375 kts 205°
2026-05-07 18:20 50.47787 3.76727 20638 ft 378 kts 205°
2026-05-07 18:20 50.45362 3.75074 21183 ft 380 kts 205°
2026-05-07 18:20 50.42926 3.73417 21717 ft 383 kts 205°
2026-05-07 18:21 50.40474 3.71750 22250 ft 386 kts 205°
2026-05-07 18:21 50.38006 3.70073 22777 ft 388 kts 205°
2026-05-07 18:21 50.35520 3.68388 23288 ft 391 kts 205°
2026-05-07 18:21 50.33051 3.66716 23758 ft 393 kts 205°
2026-05-07 18:22 50.30527 3.65011 24006 ft 395 kts 205°
2026-05-07 18:22 50.28825 3.63863 24047 ft 395 kts 205°
2026-05-07 18:22 50.25475 3.61603 24396 ft 398 kts 205°
2026-05-07 18:22 50.22928 3.59883 24829 ft 400 kts 205°
2026-05-07 18:23 50.20367 3.58155 25246 ft 402 kts 205°
2026-05-07 18:23 50.17795 3.56422 25655 ft 404 kts 205°
2026-05-07 18:23 50.15207 3.54682 26042 ft 406 kts 205°
2026-05-07 18:23 50.12601 3.52938 26426 ft 409 kts 205°
2026-05-07 18:24 50.10014 3.51214 26803 ft 411 kts 205°
2026-05-07 18:24 50.07376 3.49456 27181 ft 413 kts 205°
2026-05-07 18:24 50.04729 3.47687 27553 ft 416 kts 205°
2026-05-07 18:24 50.02062 3.45899 27926 ft 418 kts 205°
2026-05-07 18:25 49.99383 3.44109 28304 ft 420 kts 205°
2026-05-07 18:25 49.96688 3.42313 28670 ft 423 kts 205°
2026-05-07 18:25 49.93979 3.40511 29027 ft 425 kts 205°
2026-05-07 18:25 49.91253 3.38703 29380 ft 427 kts 205°
2026-05-07 18:26 49.88552 3.36914 29713 ft 429 kts 205°
2026-05-07 18:26 49.85802 3.35092 30044 ft 431 kts 205°
2026-05-07 18:26 49.83034 3.33259 30320 ft 433 kts 205°
2026-05-07 18:26 49.80259 3.31421 30597 ft 435 kts 205°
2026-05-07 18:27 49.77474 3.29577 30871 ft 437 kts 205°
2026-05-07 18:27 49.74671 3.27727 31143 ft 438 kts 205°
2026-05-07 18:27 49.71867 3.25882 31459 ft 438 kts 205°
2026-05-07 18:27 49.69062 3.24038 31854 ft 437 kts 205°
2026-05-07 18:28 49.66307 3.22231 32234 ft 436 kts 205°
2026-05-07 18:28 49.63520 3.20405 32618 ft 434 kts 205°
2026-05-07 18:28 49.60743 3.18585 32999 ft 433 kts 205°
2026-05-07 18:28 49.57970 3.16769 33376 ft 432 kts 205°
2026-05-07 18:29 49.55209 3.14964 33757 ft 431 kts 205°
2026-05-07 18:29 49.52449 3.13162 34126 ft 430 kts 205°
2026-05-07 18:29 49.49700 3.11354 34435 ft 429 kts 207°
2026-05-07 18:29 49.47097 3.09142 34700 ft 427 kts 215°
2026-05-07 18:30 49.44629 3.06615 34972 ft 427 kts 215°
2026-05-07 18:30 49.42158 3.04093 35248 ft 427 kts 215°
2026-05-07 18:30 49.39680 3.01574 35500 ft 427 kts 215°
2026-05-07 18:30 49.37241 2.99103 35737 ft 427 kts 215°
2026-05-07 18:31 49.34762 2.96597 35992 ft 427 kts 215°
2026-05-07 18:31 49.32282 2.94095 36241 ft 426 kts 215°
2026-05-07 18:31 49.29807 2.91595 36469 ft 427 kts 215°
2026-05-07 18:31 49.27328 2.89091 36695 ft 427 kts 215°
2026-05-07 18:32 49.24856 2.86595 36924 ft 427 kts 215°
2026-05-07 18:32 49.22376 2.84094 37142 ft 427 kts 215°
2026-05-07 18:32 49.19893 2.81595 37367 ft 427 kts 215°
2026-05-07 18:32 49.17419 2.79106 37583 ft 427 kts 215°
2026-05-07 18:33 49.14932 2.76609 37794 ft 427 kts 215°
2026-05-07 18:33 49.12449 2.74121 38000 ft 427 kts 215°
2026-05-07 18:33 49.09998 2.71668 38205 ft 427 kts 215°
2026-05-07 18:33 49.07520 2.69191 38410 ft 427 kts 215°
2026-05-07 18:34 49.05036 2.66708 38609 ft 427 kts 214°
2026-05-07 18:34 49.02550 2.64233 38785 ft 427 kts 214°
2026-05-07 18:34 49.00065 2.61768 38933 ft 426 kts 214°
2026-05-07 18:35 48.95095 2.56834 39055 ft 427 kts 214°
2026-05-07 18:35 48.90235 2.52008 39055 ft 426 kts 215°
2026-05-07 18:36 48.85298 2.47111 39053 ft 427 kts 214°
2026-05-07 18:36 48.80469 2.42342 39027 ft 426 kts 214°
2026-05-07 18:37 48.75491 2.37445 39030 ft 427 kts 214°
2026-05-07 18:37 48.70506 2.32552 39033 ft 427 kts 214°
2026-05-07 18:38 48.65550 2.27692 39037 ft 427 kts 214°
2026-05-07 18:38 48.60554 2.22802 39042 ft 428 kts 214°
2026-05-07 18:39 48.55244 2.18763 39044 ft 431 kts 199°
2026-05-07 18:39 48.49380 2.16771 39037 ft 433 kts 194°
2026-05-07 18:40 48.43488 2.14876 39032 ft 433 kts 194°
2026-05-07 18:40 48.37641 2.12994 39031 ft 433 kts 194°
2026-05-07 18:41 48.31756 2.11108 39033 ft 433 kts 194°
2026-05-07 18:41 48.25739 2.10564 39030 ft 438 kts 176°
2026-05-07 18:42 48.19687 2.11829 39032 ft 439 kts 175°
2026-05-07 18:42 48.13627 2.12913 39032 ft 437 kts 182°
2026-05-07 18:43 48.07665 2.12094 39033 ft 433 kts 190°
2026-05-07 18:43 48.01689 2.10939 39040 ft 433 kts 190°
2026-05-07 18:44 47.95711 2.09794 39039 ft 433 kts 190°
2026-05-07 18:44 47.89733 2.08648 39042 ft 433 kts 190°
2026-05-07 18:45 47.83762 2.07513 39040 ft 433 kts 190°
2026-05-07 18:45 47.77828 2.06379 39037 ft 433 kts 190°
2026-05-07 18:46 47.71859 2.05239 39029 ft 432 kts 190°
2026-05-07 18:46 47.65892 2.04121 39025 ft 432 kts 190°
2026-05-07 18:47 47.60153 2.01808 39014 ft 427 kts 204°
2026-05-07 18:47 47.54668 1.98591 39009 ft 427 kts 204°
2026-05-07 18:48 47.49140 1.95384 39009 ft 427 kts 204°
2026-05-07 18:48 47.43597 1.92187 39012 ft 427 kts 203°
2026-05-07 18:49 47.38050 1.89004 39013 ft 427 kts 204°
2026-05-07 18:49 47.32508 1.85822 39014 ft 427 kts 204°
2026-05-07 18:50 47.27005 1.82669 39008 ft 427 kts 204°
2026-05-07 18:50 47.21475 1.79497 39012 ft 427 kts 204°
2026-05-07 18:51 47.15931 1.76346 39007 ft 427 kts 203°
2026-05-07 18:51 47.10381 1.73226 39011 ft 427 kts 203°
2026-05-07 18:52 47.04837 1.70113 39011 ft 427 kts 203°
2026-05-07 18:52 46.99324 1.67022 39014 ft 427 kts 203°
2026-05-07 18:53 46.93771 1.63909 39013 ft 427 kts 203°
2026-05-07 18:53 46.88217 1.60809 39013 ft 427 kts 203°
2026-05-07 18:54 46.82662 1.57718 39017 ft 427 kts 203°
2026-05-07 18:54 46.77104 1.54628 39021 ft 427 kts 203°
2026-05-07 18:55 46.71585 1.51562 39017 ft 427 kts 203°
2026-05-07 18:55 46.66027 1.48490 39016 ft 427 kts 203°
2026-05-07 18:56 46.60469 1.45413 39014 ft 427 kts 203°
2026-05-07 18:56 46.54915 1.42353 39010 ft 427 kts 203°
2026-05-07 18:57 46.49397 1.39321 39009 ft 427 kts 203°
2026-05-07 18:57 46.43844 1.36279 39005 ft 426 kts 203°
2026-05-07 18:58 46.38298 1.33245 39003 ft 426 kts 203°
2026-05-07 18:58 46.32758 1.30215 39001 ft 425 kts 203°
2026-05-07 18:59 46.27227 1.27187 39003 ft 425 kts 203°
2026-05-07 18:59 46.21731 1.24199 38998 ft 425 kts 203°
2026-05-07 19:00 46.16200 1.21198 38992 ft 425 kts 203°
2026-05-07 19:00 46.10666 1.18204 38994 ft 424 kts 203°
2026-05-07 19:01 46.05139 1.15212 38990 ft 424 kts 203°
2026-05-07 19:01 45.99641 1.12247 38985 ft 425 kts 202°
2026-05-07 19:02 45.94109 1.09277 39000 ft 425 kts 202°
2026-05-07 19:02 45.88568 1.06306 39001 ft 425 kts 202°
2026-05-07 19:03 45.83050 1.03267 38986 ft 424 kts 208°
2026-05-07 19:03 45.78260 0.98579 38985 ft 420 kts 221°
2026-05-07 19:04 45.73788 0.93192 38995 ft 420 kts 221°
2026-05-07 19:04 45.69303 0.87829 38993 ft 421 kts 221°
2026-05-07 19:05 45.64805 0.82470 38990 ft 421 kts 221°
2026-05-07 19:05 45.60338 0.77154 38989 ft 421 kts 221°
2026-05-07 19:06 45.55835 0.71816 38986 ft 421 kts 220°
2026-05-07 19:06 45.49077 0.63802 38979 ft 421 kts 220°
2026-05-07 19:07 45.44564 0.58473 38973 ft 422 kts 220°
2026-05-07 19:07 45.40073 0.53174 38970 ft 422 kts 220°
2026-05-07 19:08 45.35559 0.47856 38965 ft 422 kts 220°
2026-05-07 19:08 45.31029 0.42544 38966 ft 422 kts 220°
2026-05-07 19:09 45.26504 0.37236 38966 ft 422 kts 220°
2026-05-07 19:09 45.21971 0.31936 38966 ft 422 kts 220°
2026-05-07 19:10 45.17429 0.26638 38964 ft 422 kts 220°
2026-05-07 19:10 45.12924 0.21384 38967 ft 422 kts 220°
2026-05-07 19:11 45.08383 0.16106 38959 ft 423 kts 220°
2026-05-07 19:11 45.03831 0.10824 38966 ft 423 kts 220°
2026-05-07 19:12 44.99753 0.06106 38960 ft 423 kts 220°
2026-05-07 19:12 44.95198 0.00853 38959 ft 423 kts 220°
2026-05-07 19:13 44.90634 -0.04399 38953 ft 423 kts 220°
2026-05-07 19:13 44.86063 -0.09642 38957 ft 424 kts 220°
2026-05-07 19:14 44.81491 -0.14889 38948 ft 424 kts 220°
2026-05-07 19:14 44.76945 -0.20096 38952 ft 424 kts 220°
2026-05-07 19:15 44.72360 -0.25334 38960 ft 425 kts 220°
2026-05-07 19:15 44.67766 -0.30568 38960 ft 425 kts 220°
2026-05-07 19:16 44.62918 -0.35313 38961 ft 427 kts 209°
2026-05-07 19:16 44.57690 -0.39152 38962 ft 427 kts 209°
2026-05-07 19:17 44.52427 -0.43011 38962 ft 427 kts 209°
2026-05-07 19:17 44.47161 -0.46877 38958 ft 427 kts 209°
2026-05-07 19:18 44.41899 -0.50733 38961 ft 427 kts 209°
2026-05-07 19:18 44.36634 -0.54587 38955 ft 427 kts 209°
2026-05-07 19:19 44.31393 -0.58406 38959 ft 428 kts 209°
2026-05-07 19:19 44.26114 -0.62242 38955 ft 428 kts 209°
2026-05-07 19:20 44.20835 -0.66078 38954 ft 428 kts 209°
2026-05-07 19:20 44.15553 -0.69904 38956 ft 428 kts 209°
2026-05-07 19:21 44.10309 -0.73689 38956 ft 428 kts 209°
2026-05-07 19:21 44.05030 -0.77499 38953 ft 427 kts 209°
2026-05-07 19:22 43.99756 -0.81294 38951 ft 427 kts 209°
2026-05-07 19:22 43.94483 -0.85089 38943 ft 427 kts 209°
2026-05-07 19:23 43.89215 -0.88873 38939 ft 427 kts 209°
2026-05-07 19:23 43.83975 -0.92623 38940 ft 427 kts 209°
2026-05-07 19:24 43.78697 -0.96397 38935 ft 427 kts 209°
2026-05-07 19:24 43.73414 -1.00165 38934 ft 427 kts 209°
2026-05-07 19:25 43.68126 -1.03929 38933 ft 427 kts 209°
2026-05-07 19:25 43.62873 -1.07662 38930 ft 427 kts 209°
2026-05-07 19:26 43.57589 -1.11408 38931 ft 427 kts 209°
2026-05-07 19:26 43.52294 -1.15150 38928 ft 427 kts 209°
2026-05-07 19:27 43.47001 -1.18887 38924 ft 428 kts 209°
2026-05-07 19:27 43.41737 -1.22603 38922 ft 428 kts 209°
2026-05-07 19:28 43.36431 -1.26340 38922 ft 429 kts 209°
2026-05-07 19:28 43.31116 -1.30065 38927 ft 429 kts 209°
2026-05-07 19:29 43.25796 -1.33788 38925 ft 430 kts 209°
2026-05-07 19:29 43.20470 -1.37518 38933 ft 430 kts 209°
2026-05-07 19:30 43.15174 -1.41211 38938 ft 430 kts 209°
2026-05-07 19:30 43.09839 -1.44920 38944 ft 430 kts 209°
2026-05-07 19:31 43.04504 -1.48625 38954 ft 430 kts 209°
2026-05-07 19:31 42.99169 -1.52342 38960 ft 430 kts 209°
2026-05-07 19:32 42.93872 -1.56027 38960 ft 430 kts 209°
2026-05-07 19:32 42.88515 -1.59741 38969 ft 430 kts 209°
2026-05-07 19:33 42.83216 -1.63406 38966 ft 430 kts 209°
2026-05-07 19:33 42.77884 -1.67082 38966 ft 430 kts 209°
2026-05-07 19:34 42.72556 -1.70758 38964 ft 429 kts 209°
2026-05-07 19:34 42.67205 -1.74387 38968 ft 430 kts 209°
2026-05-07 19:35 42.61880 -1.77951 38965 ft 430 kts 209°
2026-05-07 19:35 42.56518 -1.81536 38967 ft 429 kts 209°
2026-05-07 19:36 42.51166 -1.85124 38970 ft 429 kts 209°
2026-05-07 19:36 42.45817 -1.88704 38971 ft 429 kts 209°
2026-05-07 19:37 42.40465 -1.92268 38966 ft 429 kts 209°
2026-05-07 19:37 42.35149 -1.95810 38963 ft 428 kts 209°
2026-05-07 19:38 42.29807 -1.99371 38968 ft 428 kts 209°
2026-05-07 19:38 42.24455 -2.02923 38970 ft 429 kts 209°
2026-05-07 19:39 42.19097 -2.06463 38973 ft 429 kts 209°
2026-05-07 19:39 42.13774 -2.09969 38975 ft 429 kts 209°
2026-05-07 19:40 42.08419 -2.13504 38982 ft 429 kts 209°
2026-05-07 19:40 42.03062 -2.17040 38983 ft 428 kts 209°
2026-05-07 19:41 41.97744 -2.20539 38978 ft 429 kts 209°
2026-05-07 19:41 41.92389 -2.24053 38978 ft 429 kts 210°
2026-05-07 19:42 41.87027 -2.27563 38981 ft 429 kts 210°
2026-05-07 19:42 41.81657 -2.31067 38982 ft 429 kts 210°
2026-05-07 19:43 41.76292 -2.34558 38983 ft 429 kts 210°
2026-05-07 19:43 41.70960 -2.38029 38980 ft 429 kts 210°
2026-05-07 19:44 41.65588 -2.41528 38981 ft 429 kts 210°
2026-05-07 19:44 41.60212 -2.45017 38977 ft 430 kts 210°
2026-05-07 19:45 41.54832 -2.48500 38977 ft 430 kts 210°
2026-05-07 19:45 41.49445 -2.51982 38977 ft 430 kts 210°
2026-05-07 19:46 41.44090 -2.55435 38975 ft 430 kts 210°
2026-05-07 19:46 41.38694 -2.58897 38974 ft 430 kts 210°
2026-05-07 19:47 41.33147 -2.61943 38975 ft 437 kts 198°
2026-05-07 19:47 41.27066 -2.62518 38972 ft 448 kts 181°
2026-05-07 19:48 41.20837 -2.61936 38965 ft 449 kts 181°
2026-05-07 19:48 41.14603 -2.61383 38964 ft 449 kts 181°
2026-05-07 19:49 41.08360 -2.60836 38970 ft 450 kts 181°
2026-05-07 19:49 41.02104 -2.60285 38972 ft 450 kts 182°
2026-05-07 19:50 40.95887 -2.59737 38976 ft 451 kts 182°
2026-05-07 19:50 40.89628 -2.59167 38977 ft 451 kts 182°
2026-05-07 19:51 40.83381 -2.58593 38979 ft 451 kts 182°
2026-05-07 19:51 40.77118 -2.58033 38972 ft 451 kts 182°
2026-05-07 19:52 40.70861 -2.57469 38975 ft 451 kts 182°
2026-05-07 19:52 40.64641 -2.56911 38974 ft 451 kts 182°
2026-05-07 19:53 40.58387 -2.56351 38973 ft 450 kts 182°
2026-05-07 19:53 40.52142 -2.55788 38970 ft 450 kts 182°
2026-05-07 19:54 40.45886 -2.55228 38973 ft 450 kts 183°
2026-05-07 19:54 40.39691 -2.54773 38977 ft 445 kts 189°
2026-05-07 19:55 40.33751 -2.56180 38980 ft 427 kts 207°
2026-05-07 19:55 40.28229 -2.58967 38980 ft 425 kts 207°
2026-05-07 19:56 40.22708 -2.61742 38988 ft 425 kts 207°
2026-05-07 19:56 40.17190 -2.64511 38986 ft 424 kts 208°
2026-05-07 19:57 40.11716 -2.67248 38984 ft 423 kts 208°
2026-05-07 19:57 40.06219 -2.69994 38987 ft 423 kts 208°
2026-05-07 19:58 40.00721 -2.72733 38990 ft 422 kts 208°
2026-05-07 19:58 39.95236 -2.75461 38990 ft 422 kts 208°
2026-05-07 19:59 39.89789 -2.78169 38983 ft 422 kts 208°
2026-05-07 19:59 39.84305 -2.80893 38981 ft 421 kts 208°
2026-05-07 20:00 39.78835 -2.83604 38979 ft 421 kts 208°
2026-05-07 20:00 39.73362 -2.86305 38985 ft 421 kts 208°
2026-05-07 20:01 39.67928 -2.88991 38972 ft 420 kts 208°
2026-05-07 20:01 39.62467 -2.91689 38963 ft 420 kts 208°
2026-05-07 20:02 39.57010 -2.94377 38969 ft 420 kts 208°
2026-05-07 20:02 39.51554 -2.97056 38963 ft 419 kts 209°
2026-05-07 20:03 39.46095 -2.99733 38960 ft 419 kts 209°
2026-05-07 20:03 39.40680 -3.02393 38962 ft 419 kts 209°
2026-05-07 20:04 39.35232 -3.05060 38961 ft 419 kts 209°
2026-05-07 20:04 39.29778 -3.07713 38961 ft 419 kts 209°
2026-05-07 20:05 39.24328 -3.10364 38963 ft 418 kts 209°
2026-05-07 20:05 39.18920 -3.12988 38967 ft 418 kts 209°
2026-05-07 20:06 39.13484 -3.15619 38965 ft 417 kts 209°
2026-05-07 20:06 39.08056 -3.18247 38969 ft 416 kts 209°
2026-05-07 20:07 39.02637 -3.20864 38968 ft 416 kts 209°
2026-05-07 20:07 38.97259 -3.23456 38965 ft 415 kts 209°
2026-05-07 20:08 38.91865 -3.26055 38963 ft 414 kts 209°
2026-05-07 20:08 38.86478 -3.28644 38964 ft 413 kts 209°
2026-05-07 20:09 38.81092 -3.31221 38962 ft 412 kts 209°
2026-05-07 20:10 38.73044 -3.35072 38956 ft 411 kts 209°
2026-05-07 20:10 38.67730 -3.37609 38959 ft 410 kts 209°
2026-05-07 20:11 38.62387 -3.40160 38954 ft 409 kts 209°
2026-05-07 20:11 38.57057 -3.42704 38952 ft 409 kts 209°
2026-05-07 20:12 38.51728 -3.45236 38951 ft 408 kts 209°
2026-05-07 20:12 38.46446 -3.47742 38945 ft 408 kts 209°
2026-05-07 20:13 38.41130 -3.50260 38949 ft 407 kts 209°
2026-05-07 20:13 38.35828 -3.52768 38950 ft 407 kts 209°
2026-05-07 20:14 38.30519 -3.55271 38940 ft 406 kts 209°
2026-05-07 20:14 38.25256 -3.57748 38938 ft 406 kts 209°
2026-05-07 20:15 38.19968 -3.60253 38944 ft 405 kts 210°
2026-05-07 20:15 38.15238 -3.63727 38942 ft 385 kts 228°
2026-05-07 20:16 38.11863 -3.68798 38942 ft 373 kts 241°
2026-05-07 20:16 38.08972 -3.74212 38936 ft 373 kts 240°
2026-05-07 20:16 38.07510 -3.76933 38547 ft 376 kts 241°
2026-05-07 20:17 38.06021 -3.79708 37473 ft 384 kts 240°
2026-05-07 20:17 38.04517 -3.82512 36783 ft 384 kts 240°
2026-05-07 20:17 38.03015 -3.85305 36110 ft 383 kts 240°
2026-05-07 20:17 38.01512 -3.88094 35404 ft 383 kts 240°
2026-05-07 20:18 38.00006 -3.90895 34684 ft 385 kts 240°
2026-05-07 20:18 37.98507 -3.93677 34224 ft 380 kts 239°
2026-05-07 20:18 37.97022 -3.96422 33712 ft 375 kts 239°
2026-05-07 20:18 37.95573 -3.99094 33220 ft 371 kts 239°
2026-05-07 20:19 37.94123 -4.01768 32741 ft 366 kts 239°
2026-05-07 20:19 37.92690 -4.04410 32265 ft 362 kts 239°
2026-05-07 20:19 37.91274 -4.07023 31790 ft 358 kts 239°
2026-05-07 20:19 37.89871 -4.09611 31331 ft 355 kts 239°
2026-05-07 20:20 37.88480 -4.12177 30875 ft 352 kts 239°
2026-05-07 20:20 37.87105 -4.14713 30429 ft 349 kts 238°
2026-05-07 20:20 37.85735 -4.17238 29978 ft 346 kts 238°
2026-05-07 20:20 37.84397 -4.19700 29500 ft 343 kts 238°
2026-05-07 20:21 37.83058 -4.22175 29076 ft 342 kts 238°
2026-05-07 20:21 37.81695 -4.24736 28670 ft 358 kts 238°
2026-05-07 20:21 37.80306 -4.27366 28265 ft 361 kts 238°
2026-05-07 20:21 37.78902 -4.30012 27773 ft 361 kts 238°
2026-05-07 20:22 37.77491 -4.32617 27296 ft 357 kts 237°
2026-05-07 20:22 37.76090 -4.35167 26874 ft 351 kts 237°
2026-05-07 20:22 37.74698 -4.37678 26464 ft 346 kts 237°
2026-05-07 20:22 37.73786 -4.39318 26193 ft 343 kts 237°
2026-05-07 20:23 37.71991 -4.42555 25666 ft 337 kts 237°
2026-05-07 20:23 37.70641 -4.45003 25123 ft 343 kts 237°
2026-05-07 20:23 37.69287 -4.47462 24799 ft 336 kts 237°
2026-05-07 20:23 37.67962 -4.49861 24453 ft 332 kts 237°
2026-05-07 20:24 37.66647 -4.52239 24047 ft 329 kts 237°
2026-05-07 20:24 37.65781 -4.53805 23778 ft 328 kts 237°
2026-05-07 20:24 37.64482 -4.56160 23337 ft 326 kts 237°
2026-05-07 20:24 37.63142 -4.58460 22887 ft 325 kts 231°
2026-05-07 20:25 37.61012 -4.61102 22495 ft 324 kts 226°
2026-05-07 20:25 37.59381 -4.63051 22210 ft 322 kts 226°
2026-05-07 20:25 37.57761 -4.64998 21922 ft 321 kts 226°
2026-05-07 20:25 37.56102 -4.66877 21640 ft 321 kts 218°
2026-05-07 20:26 37.54117 -4.68197 21384 ft 324 kts 208°
2026-05-07 20:26 37.52756 -4.68967 21221 ft 323 kts 207°
2026-05-07 20:26 37.50702 -4.70113 20963 ft 322 kts 207°
2026-05-07 20:26 37.48654 -4.71250 20713 ft 321 kts 207°
2026-05-07 20:27 37.45951 -4.72745 20386 ft 319 kts 207°
2026-05-07 20:27 37.43921 -4.73870 20140 ft 318 kts 207°
2026-05-07 20:27 37.42556 -4.74628 19978 ft 317 kts 207°
2026-05-07 20:27 37.40565 -4.75733 19738 ft 316 kts 207°
2026-05-07 20:28 37.38563 -4.76845 19499 ft 315 kts 207°
2026-05-07 20:28 37.36562 -4.77956 19262 ft 314 kts 207°
2026-05-07 20:28 37.34569 -4.79061 19007 ft 313 kts 207°
2026-05-07 20:28 37.32588 -4.80160 18684 ft 310 kts 207°
2026-05-07 20:29 37.30613 -4.81137 18556 ft 302 kts 198°
2026-05-07 20:29 37.28489 -4.81341 18046 ft 314 kts 178°
2026-05-07 20:29 37.26308 -4.80921 17459 ft 320 kts 175°
2026-05-07 20:29 37.24101 -4.80461 16881 ft 323 kts 174°
2026-05-07 20:30 37.21879 -4.79990 16317 ft 324 kts 174°
2026-05-07 20:30 37.19706 -4.79526 15769 ft 316 kts 174°
2026-05-07 20:30 37.17562 -4.79069 15225 ft 309 kts 173°
2026-05-07 20:30 37.15458 -4.78625 14693 ft 303 kts 173°
2026-05-07 20:31 37.13393 -4.78197 14170 ft 298 kts 173°
2026-05-07 20:31 37.11366 -4.77781 13645 ft 293 kts 173°
2026-05-07 20:31 37.09371 -4.77373 13054 ft 289 kts 173°
2026-05-07 20:31 37.07400 -4.76970 12492 ft 284 kts 173°
2026-05-07 20:32 37.05489 -4.76578 11939 ft 281 kts 172°
2026-05-07 20:32 37.03573 -4.76184 11389 ft 277 kts 172°
2026-05-07 20:32 37.01685 -4.75798 10847 ft 273 kts 172°
2026-05-07 20:32 36.99820 -4.75418 10314 ft 270 kts 172°
2026-05-07 20:33 36.97978 -4.75042 9787 ft 267 kts 171°
2026-05-07 20:33 36.96159 -4.74671 9207 ft 263 kts 171°
2026-05-07 20:33 36.94364 -4.74302 8635 ft 260 kts 171°
2026-05-07 20:33 36.92595 -4.73936 8111 ft 255 kts 171°
2026-05-07 20:34 36.90865 -4.73578 7640 ft 250 kts 171°
2026-05-07 20:34 36.89174 -4.73232 7160 ft 245 kts 171°
2026-05-07 20:34 36.87507 -4.72892 6704 ft 240 kts 171°
2026-05-07 20:34 36.85892 -4.72564 6247 ft 236 kts 170°
2026-05-07 20:35 36.84283 -4.72233 5754 ft 233 kts 170°
2026-05-07 20:35 36.82693 -4.71905 5286 ft 231 kts 171°
2026-05-07 20:35 36.81110 -4.71581 4814 ft 230 kts 171°
2026-05-07 20:35 36.79531 -4.71262 4329 ft 230 kts 171°
2026-05-07 20:36 36.78010 -4.70665 3743 ft 234 kts 149°
2026-05-07 20:36 36.76863 -4.69270 3337 ft 230 kts 121°
2026-05-07 20:36 36.76118 -4.67541 3025 ft 222 kts 117°
2026-05-07 20:36 36.75421 -4.65860 2730 ft 215 kts 117°
2026-05-07 20:37 36.74752 -4.64257 2471 ft 207 kts 117°
2026-05-07 20:37 36.74112 -4.62726 2203 ft 192 kts 117°
2026-05-07 20:37 36.73525 -4.61325 1966 ft 172 kts 117°
2026-05-07 20:37 36.73003 -4.60073 1705 ft 155 kts 116°
2026-05-07 20:38 36.72529 -4.58942 1474 ft 142 kts 117°
2026-05-07 20:38 36.72082 -4.57878 1322 ft 136 kts 116°
2026-05-07 20:38 36.71647 -4.56835 1170 ft 134 kts 116°
2026-05-07 20:38 36.71214 -4.55807 1027 ft 134 kts 116°
2026-05-07 20:39 36.70778 -4.54786 874 ft 133 kts 117°
2026-05-07 20:39 36.70352 -4.53763 679 ft 133 kts 116°
2026-05-07 20:39 36.69932 -4.52757 467 ft 132 kts 116°
2026-05-07 20:39 36.69513 -4.51737 274 ft 132 kts 116°
2026-05-07 20:40 36.69089 -4.50734 95 ft 132 kts 117°
2026-05-07 20:40 36.68695 -4.49797 50 ft 109 kts 118°
2026-05-07 20:40 36.68412 -4.49142 46 ft 62 kts 118°
2026-05-07 20:40 36.68238 -4.48728 41 ft 50 kts 121°
2026-05-07 20:41 36.68018 -4.48485 38 ft 16 kts 149°
2026-05-07 20:41 36.67969 -4.48460 39 ft 4 kts 183°
2026-05-07 20:41 36.67944 -4.48474 40 ft 3 kts 201°
2026-05-07 20:41 36.67925 -4.48483 40 ft 3 kts 201°
2026-05-07 20:42 36.67889 -4.48502 40 ft 8 kts 208°
2026-05-07 20:42 36.67846 -4.48531 42 ft 5 kts 208°
2026-05-07 20:42 36.67834 -4.48589 42 ft 11 kts 284°
2026-05-07 20:42 36.67870 -4.48668 42 ft 10 kts 298°
2026-05-07 20:43 36.67901 -4.48742 42 ft 9 kts 304°
2026-05-07 20:43 36.67931 -4.48814 40 ft 11 kts 292°
2026-05-07 20:43 36.67967 -4.48893 42 ft 10 kts 298°
2026-05-07 20:43 36.68007 -4.48997 42 ft 22 kts 295°
2026-05-07 20:44 36.68083 -4.49179 42 ft 25 kts 298°
2026-05-07 20:44 36.68165 -4.49372 41 ft 18 kts 295°
2026-05-07 20:44 36.68129 -4.49487 42 ft 14 kts 223°
2026-05-07 20:44 36.68057 -4.49564 42 ft 13 kts 214°
2026-05-07 20:45 36.67999 -4.49528 42 ft 9 kts 136°
2026-05-07 20:45 36.67956 -4.49475 42 ft 8 kts 136°
2026-05-07 20:45 36.67916 -4.49473 42 ft 6 kts 216°
2026-05-07 20:45 36.67889 -4.49498 42 ft 0 kts 212°